Location: Corralito
(10.2667°N, 66.9500°W)
Time: 17:08:20
(UTC+00:00)

Okean 3 - Pass Details

Date: 23 March 2023
Orbit: 568 x 594 km, 82.5° (Epoch: 09 June)

Event Time Altitude Azimuth Distance (km) Brightness Sun altitude
Rises 23:43:53 0° 2° (N) 2,808 7.0 -16.9°
Reaches altitude 10° 23:46:06 10° 6° (N) 1,912 6.1 -17.4°
Maximum altitude 23:50:16 58° 86° (E) 693 3.4 -18.4°
Enters shadow 23:53:57 13° 163° (SSE) 1,732 5.6 -19.3°
